Weather History for La Paz, B. C. S., Mexico

Change the Weather History Date:

Thursday, October 3, 2013

  Actual Average Record
Temperature  
Mean Temperature 84 °F -  
Max Temperature 99 °F 89 °F - ()
Min Temperature 69 °F 66 °F - ()
Cooling Degree Days 19    
Growing Degree Days 34 (Base 50)    
Moisture  
Dew Point 63 °F    
Average Humidity 54    
Maximum Humidity 88    
Minimum Humidity 23    
Precipitation  
Precipitation 0.00 in - - ()
Sea Level Pressure  
Sea Level Pressure 29.85 in    
Wind  
Wind Speed 8 mph ()    
Max Wind Speed 14 mph    
Max Gust Speed -    
Visibility 11.1 miles    
Events      
T = Trace of Precipitation, MM = Missing Value Source: Averaged Metar Reports

Daily Weather History Graph

Daily Weather History Graph

Search for Another Location

Airport:

Trip Planner

Search our weather history database for the weather conditions in past years. The results will help you decide how hot, cold, wet, or windy it might be!

Date:

Astronomy

Oct. 03, 2013 Rise Set
Actual Time 7:14 AM MDT 7:05 PM MDT
Civil Twilight 6:51 AM MDT 7:28 PM MDT
Nautical Twilight 6:25 AM MDT 7:54 PM MDT
Astronomical Twilight 5:58 AM MDT 8:21 PM MDT
Moon 5:56 AM MDT (10/3) 6:14 PM MDT (10/3)
Length of Visible Light 12h 37m
Length of Day
11h 51m
Waning Crescent, 2% of the Moon is Illuminated
Oct 3
Waning Crescent
Oct 4
New
Oct 11
First Quarter
Oct 18
Full
Oct 26
Last Quarter

Hourly Weather History & Observations

Time (MDT) Temp. Heat Index Dew Point Humidity Pressure Visibility Wind Dir Wind Speed Gust Speed Precip Events Conditions
2:50 AM 77 °F - 71 °F 77% 29.86 in 2 mi South 8.9 mph - -  
5:40 AM 72 °F - 66 °F 77% 29.87 in 2 mi South 8.9 mph - -  
6:06 AM 69.8 °F - 64.4 °F 83% 29.91 in 10.0 mi South 9.2 mph - N/A   Clear
6:43 AM 68.0 °F - 64.4 °F 88% 29.89 in 10.0 mi South 9.2 mph - N/A   Clear
7:40 AM 68.0 °F - 64.4 °F 88% 29.88 in 10.0 mi South 9.2 mph - N/A   Clear
8:40 AM 74 °F - 66 °F 71% 29.94 in 16 mi South 8.9 mph - -  
9:06 AM 71.6 °F - 64.4 °F 78% 29.96 in 10.0 mi South 10.4 mph - N/A   Clear
9:48 AM 75.2 °F - 66.2 °F 73% 29.91 in 12.0 mi South 11.5 mph - N/A   Clear
10:40 AM 80.6 °F 82.3 °F 64.4 °F 58% 29.90 in 12.0 mi South 10.4 mph - N/A   Clear
11:48 AM 86.0 °F 86.6 °F 62.6 °F 45% 29.94 in 12.0 mi SSW 9.2 mph - N/A   Clear
11:50 AM 91 °F - 67 °F 36% 29.87 in 19 mi South 6.7 mph - -  
12:40 PM 89.6 °F 88.1 °F 57.2 °F 33% 29.86 in 12.0 mi SSW 8.1 mph - N/A   Clear
1:45 PM 91.4 °F 89.4 °F 55.4 °F 29% 29.82 in 12.0 mi South 6.9 mph - N/A   Clear
2:41 PM 93.2 °F 90.8 °F 53.6 °F 26% 29.85 in 12.0 mi South 8.1 mph - N/A   Clear
2:50 PM 98 °F - 64 °F 23% 29.79 in 19 mi SW 6.7 mph - -  
3:41 PM 93.2 °F 90.8 °F 53.6 °F 26% 29.77 in 12.0 mi South 11.5 mph - N/A   Clear
4:42 PM 93.2 °F 91.3 °F 55.4 °F 28% 29.77 in 12.0 mi West 4.6 mph - N/A   Clear
5:40 PM 91.4 °F 89.9 °F 57.2 °F 31% 29.82 in 12.0 mi SW 9.2 mph - N/A   Clear
5:45 PM 95 °F - 65 °F 27% 29.74 in 19 mi SSW 6.7 mph - -  
6:46 PM 87.8 °F 87.1 °F 59.0 °F 38% 29.79 in 12.0 mi WSW 13.8 mph - N/A   Clear
7:40 PM 82.4 °F 83.4 °F 62.6 °F 51% 29.81 in 12.0 mi SSW 9.2 mph - N/A   Clear
8:41 PM 78.8 °F - 64.4 °F 61% 29.87 in 12.0 mi South 10.4 mph - N/A   Clear
8:45 PM 81 °F - 68 °F 57% 29.79 in 2 mi South 8.9 mph - -  
10:47 PM 73.4 °F - 66.2 °F 78% 29.87 in 12.0 mi South 10.4 mph - N/A   Clear
11:50 PM 74 °F - 69 °F 80% 29.86 in 2 mi South 11.2 mph - -